Regional Weather Roundup
Issued by NWS

Home | Current Version | Previous Version | Graphics & Text | Print | Product List | Glossary On
Versions: 1 2 3 4 5 6 7 8 9 10 11 12 13 14 15 16 17 18 19 20 21 22 23 24 25 26 27 28 29 30 31 32 33 34 35 36 37 38 39 40 41 42 43 44 45 46 47 48 49 50
000
ASUS43 KLSX 220357
RWRMO

WEATHER SUMMARY FOR MISSOURI
NATIONAL WEATHER SERVICE SPRINGFIELD MO
1100 PM CDT MON AUG 21 2017

NOTE: "FAIR" INDICATES FEW OR NO CLOUDS BELOW 12,000 FEET WITH NO
       SIGNIFICANT WEATHER AND/OR OBSTRUCTIONS TO VISIBILITY.
       CURRENT SKY AND/OR WEATHER CONDITIONS ARE NOT AVAILABLE FOR
       CHILLICOTHE AND FARMINGTON.

MOZ001>031-035>038-043-044-053-054-220500-
...NORTHERN AND WESTERN MISSOURI...

CITY           SKY/WX    TMP DP  RH WIND       PRES   REMARKS
KANSAS CTY INT HVY RAIN  69  68  96 E6        30.02F FOG
LEE`S SUMMIT   TSTM      69  69 100 N14       30.04S FOG
ST JOSEPH      LGT RAIN  70  70 100 SE5       29.98S
CHILLICOTHE      N/A     71  71 100 CALM      29.99R
KIRKSVILLE     TSTM      70 N/A N/A NE12G25   30.06R VSB 3/4

$$
MOZ066>068-077>081-088>096-101>105-220500-
...SOUTHWEST MISSOURI...

CITY           SKY/WX    TMP DP  RH WIND       PRES   REMARKS
SPRINGFIELD    CLEAR     77  74  90 S7        30.06R
JOPLIN         CLEAR     83  76  79 S15       30.03R HX  91

$$
MOZ032>034-039>042-045>050-055>058-069>072-220500-
...CENTRAL MISSOURI...

CITY           SKY/WX    TMP DP  RH WIND       PRES   REMARKS
COLUMBIA       NOT AVBL
JEFFERSON CITY CLEAR     77  75  93 SE5       29.98R
ROLLA          CLEAR     78  73  84 S10       30.05R
SEDALIA        CLOUDY    79  76  90 S7        29.99R
WARRENSBURG    CLOUDY    79  72  78 NW15G25   30.02R

$$
MOZ051-052-059>065-220500-
...EAST CENTRAL MISSOURI...

CITY           SKY/WX    TMP DP  RH WIND       PRES   REMARKS
ST LOUIS INTL  CLOUDY    82  74  76 VRB6      29.99S

$$
MOZ072>076-082>087-097>100-106>115-220500-
...SOUTH CENTRAL AND SOUTHEAST MISSOURI...

CITY           SKY/WX    TMP DP  RH WIND       PRES   REMARKS
CAPE GIRARDEAU CLEAR     75  71  87 SE7       30.04F
POPLAR BLUFF   CLEAR     80  77  90 S5        30.04F
WEST PLAINS    CLEAR     79  72  79 S7        30.09R

$$



USA.gov is the U.S. government's official web portal to all federal, state and local government web resources and services.